Time,TemperatureF,DewpointF,PressureIn,WindDirection,WindDirectionDegrees,WindSpeedMPH,WindSpeedGustMPH,Humidity,HourlyPrecipIn,Conditions,Clouds,dailyrainin,SolarRadiationWatts/m^2,SoftwareType,DateUTC
2013-02-01 01:00:00,19.0,14.0,30.24,SE,145,5.0,6.0,81,-99.99,,,-99.99,0.000000,,2013-02-01 08:00:00,
2013-02-01 01:52:00,19.0,14.0,30.24,SE,145,5.0,6.0,81,-99.99,,,-99.99,0.000000,,2013-02-01 08:52:00,
2013-02-01 02:00:00,17.0,14.0,30.24,SE,143,5.0,6.0,86,-99.99,,,-99.99,0.000000,,2013-02-01 09:00:00,
2013-02-01 02:52:00,17.0,14.0,30.24,SE,143,5.0,6.0,86,-99.99,,,-99.99,0.000000,,2013-02-01 09:52:00,
2013-02-01 04:00:00,16.0,13.0,-100.00,SE,136,5.0,6.0,87,-99.99,,,-99.99,0.000000,,2013-02-01 11:00:00,
2013-02-01 04:53:00,16.0,13.0,-100.00,SE,136,5.0,6.0,87,-99.99,,,-99.99,0.000000,,2013-02-01 11:53:00,
2013-02-01 05:00:00,17.0,15.0,-100.00,SE,143,5.0,6.0,91,-99.99,,,-99.99,0.000000,,2013-02-01 12:00:00,
2013-02-01 05:52:00,17.0,15.0,-100.00,SE,143,5.0,6.0,91,-99.99,,,-99.99,0.000000,,2013-02-01 12:52:00,
2013-02-01 06:00:00,16.0,14.0,30.23,SE,140,5.0,6.0,92,-99.99,,,-99.99,0.000000,,2013-02-01 13:00:00,
2013-02-01 06:53:00,16.0,14.0,30.23,SE,140,5.0,6.0,92,-99.99,,,-99.99,0.000000,,2013-02-01 13:53:00,
2013-02-01 07:00:00,14.0,11.0,30.23,SE,145,5.0,-999.0,88,-99.99,,,-99.99,0.000000,,2013-02-01 14:00:00,
2013-02-01 07:53:00,14.0,11.0,30.23,SE,145,5.0,-999.0,88,-99.99,,,-99.99,0.000000,,2013-02-01 14:53:00,
2013-02-01 08:00:00,15.0,13.0,30.24,SSE,159,5.0,-999.0,93,-99.99,,,-99.99,4.420000,,2013-02-01 15:00:00,
2013-02-01 08:52:00,15.0,13.0,30.24,SSE,159,5.0,-999.0,93,-99.99,,,-99.99,4.420000,,2013-02-01 15:52:00,
2013-02-01 09:00:00,15.0,14.0,30.25,SSE,158,5.0,6.0,92,-99.99,,,-99.99,93.900002,,2013-02-01 16:00:00,
2013-02-01 09:52:00,15.0,14.0,30.25,SSE,158,5.0,6.0,92,-99.99,,,-99.99,93.900002,,2013-02-01 16:52:00,
2013-02-01 10:00:00,24.0,20.0,30.26,SSE,157,5.0,7.0,83,-99.99,,,-99.99,283.700012,,2013-02-01 17:00:00,
2013-02-01 10:53:00,24.0,20.0,30.26,SSE,157,5.0,7.0,83,-99.99,,,-99.99,283.700012,,2013-02-01 17:53:00,
2013-02-01 11:00:00,25.0,19.0,30.28,South,173,5.0,6.0,78,-99.99,,,-99.99,443.200012,,2013-02-01 18:00:00,
2013-02-01 11:53:00,25.0,19.0,30.28,South,173,5.0,6.0,78,-99.99,,,-99.99,443.200012,,2013-02-01 18:53:00,
2013-02-01 12:00:00,31.0,22.0,30.28,SSE,164,5.0,6.0,70,-99.99,,,-99.99,541.500000,,2013-02-01 19:00:00,
2013-02-01 12:52:00,31.0,22.0,30.28,SSE,164,5.0,6.0,70,-99.99,,,-99.99,541.500000,,2013-02-01 19:52:00,
2013-02-01 13:00:00,27.0,23.0,30.26,SSE,168,5.0,6.0,82,-99.99,,,-99.99,584.299988,,2013-02-01 20:00:00,
2013-02-01 13:52:00,27.0,23.0,30.26,SSE,168,5.0,6.0,82,-99.99,,,-99.99,584.299988,,2013-02-01 20:52:00,
2013-02-01 14:00:00,33.0,24.0,30.25,SSE,158,6.0,7.0,67,-99.99,,,-99.99,564.799988,,2013-02-01 21:00:00,
2013-02-01 14:52:00,33.0,24.0,30.25,SSE,158,6.0,7.0,67,-99.99,,,-99.99,564.799988,,2013-02-01 21:52:00,
2013-02-01 15:00:00,33.0,24.0,30.25,SSE,155,5.0,8.0,70,-99.99,,,-99.99,486.899994,,2013-02-01 22:00:00,
2013-02-01 15:52:00,33.0,24.0,30.25,SSE,155,5.0,8.0,70,-99.99,,,-99.99,486.899994,,2013-02-01 22:52:00,
2013-02-01 16:00:00,29.0,23.0,30.25,South,171,5.0,6.0,77,-99.99,,,-99.99,353.200012,,2013-02-01 23:00:00,
2013-02-01 16:52:00,29.0,23.0,30.25,South,171,5.0,6.0,77,-99.99,,,-99.99,353.200012,,2013-02-01 23:52:00,
2013-02-01 17:00:00,29.0,21.0,30.25,SSE,153,5.0,6.0,73,-99.99,,,-99.99,189.899994,,2013-02-02 00:00:00,
2013-02-01 17:52:00,29.0,21.0,30.25,SSE,153,5.0,6.0,73,-99.99,,,-99.99,189.899994,,2013-02-02 00:52:00,
2013-02-01 18:00:00,24.0,18.0,30.27,SSE,152,5.0,-999.0,77,-99.99,,,-99.99,30.330000,,2013-02-02 01:00:00,
2013-02-01 18:52:00,24.0,18.0,30.27,SSE,152,5.0,-999.0,77,-99.99,,,-99.99,30.330000,,2013-02-02 01:52:00,
2013-02-01 19:00:00,26.0,19.0,30.28,SSE,161,5.0,6.0,75,-99.99,,,-99.99,0.040000,,2013-02-02 02:00:00,
2013-02-01 19:52:00,26.0,19.0,30.28,SSE,161,5.0,6.0,75,-99.99,,,-99.99,0.040000,,2013-02-02 02:52:00,
2013-02-01 20:00:00,25.0,19.0,30.30,SSE,149,5.0,6.0,78,-99.99,,,-99.99,0.000000,,2013-02-02 03:00:00,
2013-02-01 20:52:00,25.0,19.0,30.30,SSE,149,5.0,6.0,78,-99.99,,,-99.99,0.000000,,2013-02-02 03:52:00,
2013-02-01 21:00:00,25.0,20.0,30.32,ESE,111,3.0,6.0,82,-99.99,,,-99.99,0.000000,,2013-02-02 04:00:00,
2013-02-01 21:52:00,25.0,20.0,30.32,ESE,111,3.0,6.0,82,-99.99,,,-99.99,0.000000,,2013-02-02 04:52:00,
2013-02-01 22:00:00,22.0,20.0,30.33,North,0,0.0,6.0,90,-99.99,,,-99.99,0.010000,,2013-02-02 05:00:00,
2013-02-01 22:52:00,22.0,20.0,30.33,North,0,0.0,6.0,90,-99.99,,,-99.99,0.010000,,2013-02-02 05:52:00,